Weather History for KVBT - March, 2013

Change the Weather History Date:

Thursday, March 21, 2013

  Actual Average (KFYV) Record (KFYV)
Temperature  
Mean Temperature 38 °F 50 °F  
Max Temperature 42 °F 62 °F 84 °F (1997)
Min Temperature 33 °F 38 °F 16 °F (1965)
Degree Days  
Heating Degree Days 28 16  
Month to date heating degree days 386  
Since 1 July heating degree days 3689  
Cooling Degree Days 0 0  
Month to date cooling degree days 0  
Year to date cooling degree days 0  
Moisture  
Dew Point 21 °F    
Average Humidity 61    
Maximum Humidity 87    
Minimum Humidity 25    
Precipitation  
Precipitation 0.21 in 0.12 in - ()
Month to date precipitation 2.60  
Year to date precipitation 8.25  
Sea Level Pressure  
Sea Level Pressure 29.91 in    
Wind  
Wind Speed 10 mph (ESE)    
Max Wind Speed 16 mph    
Max Gust Speed 22 mph    
Visibility 9 miles    
Events      
T = Trace of Precipitation, MM = Missing Value Source: NWS Daily Summary

Daily Weather History Graph

Daily Weather History Graph

Search for Another Location

Airport or City:

Trip Planner

Search our weather history database for the weather conditions in past years. The results will help you decide how hot, cold, wet, or windy it might be!

Date:

Astronomy

Mar. 21, 2013 Rise Set
Actual Time 7:18 AM CDT 7:29 PM CDT
Civil Twilight 6:52 AM CDT 7:55 PM CDT
Nautical Twilight 6:22 AM CDT 8:25 PM CDT
Astronomical Twilight 5:52 AM CDT 8:56 PM CDT
Moon 2:08 PM CDT (3/21) 3:32 AM CDT (3/21)
Length of Visible Light 13h 02m
Length of Day
12h 11m
Waxing Gibbous, 69% of the Moon is Illuminated
Mar 21
Waxing Gibbous
Mar 27
Full
Apr 2
Last Quarter
Apr 10
New
Apr 18
First Quarter

Hourly Weather History & Observations

Time (CDT) Temp. Windchill Dew Point Humidity Pressure Visibility Wind Dir Wind Speed Gust Speed Precip Events Conditions
12:15 AM 35.6 °F 29.9 °F 15.8 °F 44% 30.08 in 10.0 mi ENE 6.9 mph - N/A   Clear
12:35 AM 33.8 °F 30.8 °F 15.8 °F 48% 30.08 in 10.0 mi East 3.5 mph - N/A   Clear
1:15 AM 33.8 °F 28.6 °F 15.8 °F 48% 30.06 in 10.0 mi East 5.8 mph - N/A   Clear
1:35 AM 33.8 °F 29.6 °F 17.6 °F 52% 30.05 in 10.0 mi East 4.6 mph - N/A   Clear
1:55 AM 33.8 °F 27.7 °F 17.6 °F 52% 30.05 in 10.0 mi East 6.9 mph - N/A   Clear
2:15 AM 33.8 °F 27.7 °F 17.6 °F 52% 30.05 in 10.0 mi ESE 6.9 mph - N/A   Clear
2:35 AM 33.8 °F 27.0 °F 17.6 °F 52% 30.05 in 10.0 mi SE 8.1 mph - N/A   Partly Cloudy
2:55 AM 33.8 °F 27.7 °F 15.8 °F 48% 30.04 in 10.0 mi East 6.9 mph - N/A   Clear
3:15 AM 33.8 °F 25.8 °F 15.8 °F 48% 30.02 in 10.0 mi East 10.4 mph - N/A   Clear
3:35 AM 33.8 °F 26.4 °F 14.0 °F 44% 30.01 in 10.0 mi East 9.2 mph - N/A   Partly Cloudy
3:55 AM 33.8 °F 27.0 °F 14.0 °F 44% 30.01 in 10.0 mi East 8.1 mph - N/A   Partly Cloudy
4:15 AM 33.8 °F 27.0 °F 15.8 °F 48% 30.00 in 10.0 mi East 8.1 mph - N/A   Clear
4:35 AM 33.8 °F 27.0 °F 17.6 °F 52% 30.00 in 10.0 mi East 8.1 mph - N/A   Scattered Clouds
4:55 AM 33.8 °F 27.7 °F 15.8 °F 48% 30.00 in 10.0 mi East 6.9 mph - N/A   Partly Cloudy
5:15 AM 33.8 °F 27.7 °F 17.6 °F 52% 29.99 in 10.0 mi East 6.9 mph - N/A   Partly Cloudy
5:35 AM 33.8 °F 26.4 °F 17.6 °F 52% 29.99 in 10.0 mi East 9.2 mph - N/A   Scattered Clouds
5:55 AM 33.8 °F 27.0 °F 17.6 °F 52% 29.99 in 10.0 mi East 8.1 mph - N/A   Mostly Cloudy
6:15 AM 33.8 °F 27.0 °F 15.8 °F 48% 29.99 in 10.0 mi East 8.1 mph - N/A   Mostly Cloudy
6:35 AM 33.8 °F 26.4 °F 15.8 °F 48% 30.00 in 10.0 mi East 9.2 mph - N/A   Mostly Cloudy
6:55 AM 35.6 °F 29.2 °F 14.0 °F 41% 30.00 in 10.0 mi East 8.1 mph - N/A   Scattered Clouds
7:15 AM 35.6 °F 27.1 °F 12.2 °F 38% 29.98 in 10.0 mi East 12.7 mph 18.4 mph N/A   Partly Cloudy
7:35 AM 35.6 °F 28.0 °F 10.4 °F 35% 29.98 in 10.0 mi East 10.4 mph 18.4 mph N/A   Scattered Clouds
7:55 AM 35.6 °F 27.5 °F 12.2 °F 38% 29.98 in 10.0 mi East 11.5 mph - N/A   Mostly Cloudy
8:15 AM 35.6 °F 27.5 °F 10.4 °F 35% 29.98 in 10.0 mi ESE 11.5 mph - N/A   Scattered Clouds
8:35 AM 35.6 °F 26.6 °F 10.4 °F 35% 29.98 in 10.0 mi East 13.8 mph - N/A   Scattered Clouds
8:55 AM 35.6 °F 25.9 °F 10.4 °F 35% 29.98 in 10.0 mi East 16.1 mph - N/A   Mostly Cloudy
9:15 AM 37.4 °F 28.2 °F 10.4 °F 33% 29.97 in 10.0 mi East 16.1 mph - N/A   Mostly Cloudy
9:35 AM 37.4 °F 28.5 °F 8.6 °F 30% 29.96 in 10.0 mi East 15.0 mph - N/A   Mostly Cloudy
9:55 AM 39.2 °F 33.0 °F 10.4 °F 31% 29.96 in 10.0 mi ESE 9.2 mph - N/A   Scattered Clouds
10:15 AM 39.2 °F 32.0 °F 8.6 °F 28% 29.96 in 10.0 mi East 11.5 mph - N/A   Mostly Cloudy
10:35 AM 39.2 °F 33.6 °F 10.4 °F 31% 29.96 in 10.0 mi East 8.1 mph - N/A   Overcast
10:55 AM 41.0 °F 35.2 °F 12.2 °F 31% 29.95 in 10.0 mi East 9.2 mph - N/A   Mostly Cloudy
11:35 AM 42.8 °F 37.0 °F 10.4 °F 27% 29.94 in 10.0 mi ESE 10.4 mph - N/A   Overcast
11:55 AM 42.8 °F 37.5 °F 8.6 °F 25% 29.95 in 10.0 mi SSE 9.2 mph - N/A   Overcast
12:15 PM 42.8 °F 36.6 °F 10.4 °F 27% 29.92 in 10.0 mi SE 11.5 mph - N/A   Overcast
12:35 PM 42.8 °F 36.2 °F 14.0 °F 31% 29.92 in 10.0 mi SSE 12.7 mph 19.6 mph N/A   Overcast
12:55 PM 41.0 °F 34.3 °F 21.2 °F 45% 29.91 in 10.0 mi SE 11.5 mph - N/A   Overcast
1:15 PM 39.2 °F 31.6 °F 24.8 °F 56% 29.91 in 10.0 mi SE 12.7 mph 20.7 mph N/A   Overcast
1:35 PM 37.4 °F 29.3 °F 28.4 °F 70% 29.90 in 7.0 mi SE 12.7 mph 18.4 mph N/A   Overcast
1:55 PM 35.6 °F 27.5 °F 28.4 °F 75% 29.89 in 2.5 mi ESE 11.5 mph - N/A   Mostly Cloudy
2:15 PM 33.8 °F 23.9 °F 30.2 °F 87% 29.87 in 2.5 mi ESE 15.0 mph 19.6 mph 0.01 in   Mostly Cloudy
2:35 PM 33.8 °F 23.9 °F 30.2 °F 87% 29.85 in 2.5 mi ESE 15.0 mph - 0.02 in   Overcast
2:55 PM 33.8 °F 24.8 °F 30.2 °F 87% 29.84 in 2.0 mi East 12.7 mph - 0.03 in   Overcast
3:15 PM 33.8 °F 23.5 °F 30.2 °F 87% 29.81 in 2.5 mi ESE 16.1 mph 21.9 mph 0.02 in   Mostly Cloudy
3:35 PM 33.8 °F 23.5 °F 30.2 °F 87% 29.81 in 8.0 mi ESE 16.1 mph 21.9 mph 0.03 in   Overcast
3:55 PM 33.8 °F 23.9 °F 30.2 °F 87% 29.80 in 5.0 mi East 15.0 mph 19.6 mph 0.04 in   Overcast
4:15 PM 35.6 °F 27.1 °F 30.2 °F 81% 29.80 in 5.0 mi East 12.7 mph 18.4 mph 0.02 in   Overcast
4:35 PM 35.6 °F 27.1 °F 30.2 °F 81% 29.79 in 10.0 mi East 12.7 mph 20.7 mph 0.02 in   Overcast
4:55 PM 35.6 °F 28.0 °F 30.2 °F 81% 29.79 in 10.0 mi ESE 10.4 mph - 0.02 in   Overcast
5:15 PM 35.6 °F 27.1 °F 30.2 °F 81% 29.78 in 10.0 mi ESE 12.7 mph 17.3 mph N/A   Overcast
5:35 PM 35.6 °F 27.1 °F 30.2 °F 81% 29.78 in 10.0 mi East 12.7 mph 18.4 mph N/A   Overcast
5:55 PM 35.6 °F 27.1 °F 30.2 °F 81% 29.78 in 10.0 mi East 12.7 mph 18.4 mph N/A   Overcast
6:15 PM 35.6 °F 26.2 °F 30.2 °F 81% 29.78 in 10.0 mi East 15.0 mph 20.7 mph N/A   Overcast
6:35 PM 35.6 °F 27.1 °F 30.2 °F 81% 29.79 in 10.0 mi ESE 12.7 mph 17.3 mph N/A   Overcast
6:55 PM 35.6 °F 28.6 °F 30.2 °F 81% 29.80 in 10.0 mi East 9.2 mph - N/A   Overcast
7:15 PM 35.6 °F 28.0 °F 30.2 °F 81% 29.79 in 10.0 mi East 10.4 mph - N/A   Overcast
7:35 PM 35.6 °F 27.1 °F 30.2 °F 81% 29.80 in 10.0 mi ESE 12.7 mph - N/A   Overcast
7:55 PM 35.6 °F 28.6 °F 30.2 °F 81% 29.81 in 10.0 mi East 9.2 mph 17.3 mph 0.02 in   Overcast
8:15 PM 35.6 °F 27.1 °F 30.2 °F 81% 29.80 in 7.0 mi East 12.7 mph 18.4 mph 0.02 in   Overcast
8:35 PM 35.6 °F 26.6 °F 30.2 °F 81% 29.80 in 7.0 mi East 13.8 mph 19.6 mph 0.03 in   Overcast
8:55 PM 35.6 °F 26.2 °F 30.2 °F 81% 29.79 in 10.0 mi East 15.0 mph 20.7 mph 0.04 in   Overcast
9:15 PM 33.8 °F 24.3 °F 30.2 °F 87% 29.80 in 10.0 mi East 13.8 mph 19.6 mph N/A   Overcast
9:35 PM 33.8 °F 24.8 °F 30.2 °F 87% 29.80 in 10.0 mi East 12.7 mph - N/A   Overcast
9:55 PM 33.8 °F 23.9 °F 30.2 °F 87% 29.81 in 10.0 mi East 15.0 mph 20.7 mph N/A   Overcast
10:15 PM 33.8 °F 25.3 °F 30.2 °F 87% 29.81 in 10.0 mi East 11.5 mph 19.6 mph 0.01 in   Overcast
10:35 PM 33.8 °F 24.3 °F 30.2 °F 87% 29.81 in 10.0 mi East 13.8 mph - 0.01 in   Overcast
10:55 PM 33.8 °F 25.3 °F 30.2 °F 87% 29.82 in 9.0 mi East 11.5 mph - 0.02 in   Overcast
11:15 PM 33.8 °F 24.3 °F 30.2 °F 87% 29.82 in 10.0 mi East 13.8 mph 19.6 mph N/A   Overcast
11:35 PM 33.8 °F 24.8 °F 30.2 °F 87% 29.82 in 5.0 mi East 12.7 mph 18.4 mph 0.03 in   Overcast
11:55 PM 33.8 °F 24.8 °F 30.2 °F 87% 29.82 in 10.0 mi East 12.7 mph - 0.04 in   Overcast